Time,TemperatureF,DewpointF,PressureIn,WindDirection,WindDirectionDegrees,WindSpeedMPH,WindSpeedGustMPH,Humidity,HourlyPrecipIn,Conditions,Clouds,dailyrainin,SoftwareType,DateUTC
2013-02-16 00:00:00,30.6,24.6,29.61,North,0,0.0,0.0,78,0.00,,,0.00,WUHU216HW,2013-02-16 05:00:00,
2013-02-16 00:01:00,30.6,24.6,29.61,North,0,0.0,0.0,78,0.00,,,0.00,WUHU216HW,2013-02-16 05:01:00,
2013-02-16 00:06:00,30.6,24.6,29.61,North,0,0.0,0.0,78,0.00,,,0.00,WUHU216HW,2013-02-16 05:06:00,
2013-02-16 00:11:00,30.6,24.8,29.60,North,0,0.0,0.0,79,0.00,,,0.00,WUHU216HW,2013-02-16 05:11:00,
2013-02-16 00:16:00,30.6,24.8,29.61,North,0,0.0,0.0,79,0.00,,,0.00,WUHU216HW,2013-02-16 05:16:00,
2013-02-16 00:21:00,30.6,24.8,29.60,North,0,0.0,0.0,79,0.00,,,0.00,WUHU216HW,2013-02-16 05:21:00,
2013-02-16 00:23:00,30.6,24.8,29.60,North,0,0.0,0.0,79,0.00,,,0.00,WUHU216HW,2013-02-16 05:23:00,
2013-02-16 00:28:00,30.6,24.8,29.60,North,0,0.0,0.0,79,0.00,,,0.00,WUHU216HW,2013-02-16 05:28:00,
2013-02-16 00:33:00,30.6,24.8,29.60,North,0,0.0,0.0,79,0.00,,,0.00,WUHU216HW,2013-02-16 05:33:00,
2013-02-16 00:38:00,30.8,25.0,29.61,North,0,0.0,0.0,79,0.00,,,0.00,WUHU216HW,2013-02-16 05:38:00,
2013-02-16 00:43:00,30.8,25.0,29.61,North,0,0.0,0.0,79,0.00,,,0.00,WUHU216HW,2013-02-16 05:43:00,
2013-02-16 00:48:00,30.8,25.0,29.61,North,0,0.0,0.0,79,0.00,,,0.00,WUHU216HW,2013-02-16 05:48:00,
2013-02-16 00:53:00,30.8,25.0,29.61,North,0,0.0,0.0,79,0.00,,,0.00,WUHU216HW,2013-02-16 05:53:00,
2013-02-16 00:58:00,31.0,25.2,29.61,North,0,0.0,0.0,79,0.00,,,0.00,WUHU216HW,2013-02-16 05:58:00,
2013-02-16 01:03:00,31.0,25.2,29.61,North,0,0.0,0.0,79,0.00,,,0.00,WUHU216HW,2013-02-16 06:03:00,
2013-02-16 01:09:00,31.0,25.2,29.62,North,0,0.0,0.0,79,0.00,,,0.00,WUHU216HW,2013-02-16 06:09:00,
2013-02-16 01:14:00,31.1,25.4,29.62,North,0,0.0,0.0,79,0.00,,,0.00,WUHU216HW,2013-02-16 06:14:00,
2013-02-16 01:19:00,31.1,25.4,29.62,North,0,0.0,0.0,79,0.00,,,0.00,WUHU216HW,2013-02-16 06:19:00,
2013-02-16 01:24:00,31.1,25.4,29.62,North,0,0.0,0.0,79,0.00,,,0.00,WUHU216HW,2013-02-16 06:24:00,
2013-02-16 01:29:00,31.1,25.4,29.62,North,0,0.0,0.0,79,0.00,,,0.00,WUHU216HW,2013-02-16 06:29:00,
2013-02-16 01:34:00,31.3,25.6,29.62,North,0,0.0,0.0,79,0.00,,,0.00,WUHU216HW,2013-02-16 06:34:00,
2013-02-16 01:39:00,31.3,25.9,29.62,North,0,0.0,0.0,80,0.00,,,0.00,WUHU216HW,2013-02-16 06:39:00,
2013-02-16 01:44:00,31.3,25.9,29.62,North,0,0.0,0.0,80,0.00,,,0.00,WUHU216HW,2013-02-16 06:44:00,
2013-02-16 01:49:00,31.3,25.9,29.62,North,0,0.0,0.0,80,0.00,,,0.00,WUHU216HW,2013-02-16 06:49:00,
2013-02-16 01:54:00,31.3,25.9,29.62,North,0,0.0,0.0,80,0.00,,,0.00,WUHU216HW,2013-02-16 06:54:00,
2013-02-16 01:59:00,31.3,26.2,29.62,North,0,0.0,0.0,81,0.00,,,0.00,WUHU216HW,2013-02-16 06:59:00,
2013-02-16 02:05:00,31.3,26.2,29.62,North,0,0.0,0.0,81,0.00,,,0.00,WUHU216HW,2013-02-16 07:05:00,
2013-02-16 02:10:00,31.3,26.2,29.62,North,0,0.0,0.0,81,0.00,,,0.00,WUHU216HW,2013-02-16 07:10:00,
2013-02-16 02:15:00,31.5,26.4,29.62,North,0,0.0,0.0,81,0.00,,,0.00,WUHU216HW,2013-02-16 07:15:00,
2013-02-16 02:20:00,31.5,26.4,29.63,North,0,0.0,0.0,81,0.00,,,0.00,WUHU216HW,2013-02-16 07:20:00,
2013-02-16 02:25:00,31.7,26.3,29.63,North,0,0.0,0.0,80,0.00,,,0.00,WUHU216HW,2013-02-16 07:25:00,
2013-02-16 02:30:00,31.9,26.5,29.63,North,0,0.0,0.0,80,0.00,,,0.00,WUHU216HW,2013-02-16 07:30:00,
2013-02-16 02:35:00,31.9,26.5,29.62,North,0,0.0,0.0,80,0.00,,,0.00,WUHU216HW,2013-02-16 07:35:00,
2013-02-16 02:40:00,32.0,26.6,29.61,North,0,0.0,0.0,80,0.00,,,0.00,WUHU216HW,2013-02-16 07:40:00,
2013-02-16 02:45:00,32.0,26.6,29.60,North,0,0.0,0.0,80,0.00,,,0.00,WUHU216HW,2013-02-16 07:45:00,
2013-02-16 02:51:00,32.2,26.8,29.61,North,0,0.0,0.0,80,0.00,,,0.00,WUHU216HW,2013-02-16 07:51:00,
2013-02-16 02:56:00,32.2,26.8,29.61,North,0,0.0,0.0,80,0.00,,,0.00,WUHU216HW,2013-02-16 07:56:00,
2013-02-16 03:01:00,32.6,27.1,29.62,North,0,0.0,0.0,80,0.00,,,0.00,WUHU216HW,2013-02-16 08:01:00,
2013-02-16 03:06:00,32.8,27.3,29.62,North,0,0.0,0.0,80,0.00,,,0.00,WUHU216HW,2013-02-16 08:06:00,
2013-02-16 03:11:00,32.9,27.5,29.62,North,0,0.0,0.0,80,0.00,,,0.00,WUHU216HW,2013-02-16 08:11:00,
2013-02-16 03:16:00,33.1,27.9,29.63,North,0,0.0,0.0,81,0.00,,,0.00,WUHU216HW,2013-02-16 08:16:00,
2013-02-16 03:21:00,32.9,27.7,29.63,North,0,0.0,0.0,81,0.00,,,0.00,WUHU216HW,2013-02-16 08:21:00,
2013-02-16 03:26:00,32.9,27.7,29.62,North,0,0.0,0.0,81,0.00,,,0.00,WUHU216HW,2013-02-16 08:26:00,
2013-02-16 03:31:00,32.8,27.5,29.62,North,0,0.0,0.0,81,0.00,,,0.00,WUHU216HW,2013-02-16 08:31:00,
2013-02-16 03:36:00,32.8,27.5,29.62,North,0,0.0,0.0,81,0.00,,,0.00,WUHU216HW,2013-02-16 08:36:00,
2013-02-16 03:41:00,32.8,27.5,29.62,North,0,0.0,0.0,81,0.00,,,0.00,WUHU216HW,2013-02-16 08:41:00,
2013-02-16 03:47:00,32.8,27.5,29.62,North,0,0.0,0.0,81,0.00,,,0.00,WUHU216HW,2013-02-16 08:47:00,
2013-02-16 03:52:00,32.8,27.5,29.62,North,0,0.0,0.0,81,0.00,,,0.00,WUHU216HW,2013-02-16 08:52:00,
2013-02-16 03:57:00,32.6,27.5,29.62,North,0,0.0,0.0,81,0.00,,,0.00,WUHU216HW,2013-02-16 08:57:00,
2013-02-16 04:02:00,32.6,27.5,29.62,North,0,0.0,0.0,81,0.00,,,0.00,WUHU216HW,2013-02-16 09:02:00,
2013-02-16 04:07:00,32.6,27.5,29.62,North,0,0.0,0.0,81,0.00,,,0.00,WUHU216HW,2013-02-16 09:07:00,
2013-02-16 04:12:00,32.4,27.3,29.62,North,0,0.0,0.0,81,0.00,,,0.00,WUHU216HW,2013-02-16 09:12:00,
2013-02-16 04:17:00,32.4,27.3,29.62,North,0,0.0,0.0,81,0.00,,,0.00,WUHU216HW,2013-02-16 09:17:00,
2013-02-16 04:22:00,32.4,27.5,29.62,North,0,0.0,0.0,82,0.00,,,0.00,WUHU216HW,2013-02-16 09:22:00,
2013-02-16 04:27:00,32.2,27.4,29.62,North,0,0.0,0.0,82,0.00,,,0.00,WUHU216HW,2013-02-16 09:27:00,
2013-02-16 04:32:00,32.2,27.4,29.61,North,0,0.0,0.0,82,0.00,,,0.00,WUHU216HW,2013-02-16 09:32:00,
2013-02-16 04:37:00,32.2,27.4,29.61,North,0,0.0,0.0,82,0.00,,,0.00,WUHU216HW,2013-02-16 09:37:00,
2013-02-16 04:42:00,32.2,27.4,29.61,North,0,0.0,0.0,82,0.00,,,0.00,WUHU216HW,2013-02-16 09:42:00,
2013-02-16 04:47:00,32.0,27.6,29.61,North,0,0.0,0.0,83,0.00,,,0.00,WUHU216HW,2013-02-16 09:47:00,
2013-02-16 04:52:00,32.0,27.6,29.62,North,0,0.0,0.0,83,0.00,,,0.00,WUHU216HW,2013-02-16 09:52:00,
2013-02-16 04:57:00,32.0,27.6,29.61,North,0,0.0,0.0,83,0.00,,,0.00,WUHU216HW,2013-02-16 09:57:00,
2013-02-16 05:02:00,32.0,27.6,29.61,North,0,0.0,0.0,83,0.00,,,0.00,WUHU216HW,2013-02-16 10:02:00,
2013-02-16 05:07:00,32.0,27.6,29.62,North,0,0.0,0.0,83,0.00,,,0.00,WUHU216HW,2013-02-16 10:07:00,
2013-02-16 05:13:00,32.0,27.6,29.62,North,0,0.0,0.0,83,0.00,,,0.00,WUHU216HW,2013-02-16 10:13:00,
2013-02-16 05:18:00,32.0,27.6,29.61,North,0,0.0,0.0,83,0.00,,,0.00,WUHU216HW,2013-02-16 10:18:00,
2013-02-16 05:23:00,32.0,27.6,29.61,North,0,0.0,0.0,83,0.00,,,0.00,WUHU216HW,2013-02-16 10:23:00,
2013-02-16 05:28:00,32.0,27.6,29.61,North,0,0.0,0.0,83,0.00,,,0.00,WUHU216HW,2013-02-16 10:28:00,
2013-02-16 05:33:00,31.9,27.4,29.61,North,0,0.0,0.0,83,0.00,,,0.00,WUHU216HW,2013-02-16 10:33:00,
2013-02-16 05:38:00,31.9,27.6,29.61,North,0,0.0,0.0,84,0.00,,,0.00,WUHU216HW,2013-02-16 10:38:00,
2013-02-16 05:43:00,31.9,27.6,29.61,North,0,0.0,0.0,84,0.00,,,0.00,WUHU216HW,2013-02-16 10:43:00,
2013-02-16 05:48:00,31.9,27.6,29.61,North,0,0.0,0.0,84,0.00,,,0.00,WUHU216HW,2013-02-16 10:48:00,
2013-02-16 05:53:00,31.9,27.6,29.61,North,0,0.0,0.0,84,0.00,,,0.00,WUHU216HW,2013-02-16 10:53:00,
2013-02-16 05:58:00,31.9,27.6,29.61,North,0,0.0,0.0,84,0.00,,,0.00,WUHU216HW,2013-02-16 10:58:00,
2013-02-16 06:03:00,31.9,27.6,29.61,North,0,0.0,0.0,84,0.00,,,0.00,WUHU216HW,2013-02-16 11:03:00,
2013-02-16 06:08:00,31.7,27.7,29.61,North,0,0.0,0.0,85,0.00,,,0.00,WUHU216HW,2013-02-16 11:08:00,
2013-02-16 06:14:00,31.7,27.7,29.61,North,0,0.0,0.0,85,0.00,,,0.00,WUHU216HW,2013-02-16 11:14:00,
2013-02-16 06:19:00,31.7,27.7,29.61,North,0,0.0,0.0,85,0.00,,,0.00,WUHU216HW,2013-02-16 11:19:00,
2013-02-16 06:24:00,31.7,27.7,29.61,North,0,0.0,0.0,85,0.00,,,0.00,WUHU216HW,2013-02-16 11:24:00,
2013-02-16 06:29:00,31.7,27.7,29.61,North,0,0.0,0.0,85,0.00,,,0.00,WUHU216HW,2013-02-16 11:29:00,
2013-02-16 06:34:00,31.7,27.7,29.61,North,0,0.0,0.0,85,0.00,,,0.00,WUHU216HW,2013-02-16 11:34:00,
2013-02-16 06:39:00,31.5,27.5,29.61,North,0,0.0,0.0,85,0.00,,,0.00,WUHU216HW,2013-02-16 11:39:00,
2013-02-16 06:44:00,31.5,27.5,29.60,North,0,0.0,0.0,85,0.00,,,0.00,WUHU216HW,2013-02-16 11:44:00,
2013-02-16 06:49:00,31.5,27.5,29.60,North,0,0.0,0.0,85,0.00,,,0.00,WUHU216HW,2013-02-16 11:49:00,
2013-02-16 06:54:00,31.5,27.5,29.60,North,0,0.0,0.0,85,0.00,,,0.00,WUHU216HW,2013-02-16 11:54:00,
2013-02-16 06:59:00,31.3,27.4,29.61,North,0,0.0,0.0,85,0.00,,,0.00,WUHU216HW,2013-02-16 11:59:00,
2013-02-16 07:04:00,31.3,27.4,29.61,North,0,0.0,0.0,85,0.00,,,0.00,WUHU216HW,2013-02-16 12:04:00,
2013-02-16 07:09:00,31.3,27.4,29.61,North,0,0.0,0.0,85,0.00,,,0.00,WUHU216HW,2013-02-16 12:09:00,
2013-02-16 07:14:00,31.3,27.4,29.61,North,0,0.0,0.0,85,0.00,,,0.00,WUHU216HW,2013-02-16 12:14:00,
2013-02-16 07:19:00,31.3,27.4,29.61,North,0,0.0,0.0,85,0.00,,,0.00,WUHU216HW,2013-02-16 12:19:00,
2013-02-16 07:24:00,31.3,27.4,29.61,North,0,0.0,0.0,85,0.00,,,0.00,WUHU216HW,2013-02-16 12:24:00,
2013-02-16 07:30:00,31.3,27.4,29.61,North,0,0.0,0.0,85,0.00,,,0.00,WUHU216HW,2013-02-16 12:30:00,
2013-02-16 07:35:00,31.3,27.4,29.61,North,0,0.0,0.0,85,0.00,,,0.00,WUHU216HW,2013-02-16 12:35:00,
2013-02-16 07:40:00,31.5,27.5,29.61,North,0,0.0,0.0,85,0.00,,,0.00,WUHU216HW,2013-02-16 12:40:00,
2013-02-16 07:45:00,31.7,28.0,29.61,North,0,0.0,0.0,86,0.00,,,0.00,WUHU216HW,2013-02-16 12:45:00,
2013-02-16 07:50:00,31.9,28.2,29.61,North,0,0.0,0.0,86,0.00,,,0.00,WUHU216HW,2013-02-16 12:50:00,
2013-02-16 07:55:00,32.0,28.4,29.61,North,0,0.0,0.0,86,0.00,,,0.00,WUHU216HW,2013-02-16 12:55:00,
2013-02-16 08:00:00,32.0,28.4,29.60,North,0,0.0,0.0,86,0.00,,,0.00,WUHU216HW,2013-02-16 13:00:00,
2013-02-16 08:05:00,32.2,28.5,29.61,North,0,0.0,0.0,86,0.00,,,0.00,WUHU216HW,2013-02-16 13:05:00,
2013-02-16 08:10:00,32.6,28.9,29.61,North,0,0.0,0.0,86,0.00,,,0.00,WUHU216HW,2013-02-16 13:10:00,
2013-02-16 08:15:00,32.9,29.2,29.61,North,0,0.0,0.0,86,0.00,,,0.00,WUHU216HW,2013-02-16 13:15:00,
2013-02-16 08:21:00,33.5,29.7,29.61,North,0,0.0,0.0,86,0.00,,,0.00,WUHU216HW,2013-02-16 13:21:00,
2013-02-16 08:26:00,33.5,29.7,29.61,North,0,0.0,0.0,86,0.00,,,0.00,WUHU216HW,2013-02-16 13:26:00,
2013-02-16 08:31:00,33.8,30.0,29.61,North,0,0.0,0.0,86,0.00,,,0.00,WUHU216HW,2013-02-16 13:31:00,
2013-02-16 08:36:00,33.8,29.7,29.61,North,0,0.0,0.0,85,0.00,,,0.00,WUHU216HW,2013-02-16 13:36:00,
2013-02-16 08:41:00,34.2,30.1,29.61,North,0,0.0,0.0,85,0.00,,,0.00,WUHU216HW,2013-02-16 13:41:00,
2013-02-16 08:46:00,34.2,30.1,29.61,North,0,0.0,0.0,85,0.00,,,0.00,WUHU216HW,2013-02-16 13:46:00,
2013-02-16 08:51:00,34.6,30.2,29.61,North,0,0.0,0.0,84,0.00,,,0.00,WUHU216HW,2013-02-16 13:51:00,
2013-02-16 08:56:00,34.9,30.8,29.61,North,0,0.0,0.0,85,0.00,,,0.00,WUHU216HW,2013-02-16 13:56:00,
2013-02-16 09:02:00,35.1,30.7,29.61,North,0,0.0,0.0,84,0.01,,,0.01,WUHU216HW,2013-02-16 14:02:00,
2013-02-16 09:07:00,34.9,30.5,29.61,North,0,0.0,0.0,84,0.01,,,0.01,WUHU216HW,2013-02-16 14:07:00,
2013-02-16 09:12:00,35.1,30.7,29.60,North,0,0.0,0.0,84,0.01,,,0.01,WUHU216HW,2013-02-16 14:12:00,
2013-02-16 09:17:00,35.6,31.0,29.60,North,0,0.0,0.0,83,0.01,,,0.01,WUHU216HW,2013-02-16 14:17:00,
2013-02-16 09:22:00,35.8,30.8,29.60,North,0,0.0,0.0,82,0.01,,,0.01,WUHU216HW,2013-02-16 14:22:00,
2013-02-16 09:27:00,36.7,31.7,29.60,North,0,0.0,0.0,82,0.01,,,0.01,WUHU216HW,2013-02-16 14:27:00,
2013-02-16 09:32:00,37.4,31.9,29.60,North,0,0.0,0.0,80,0.01,,,0.01,WUHU216HW,2013-02-16 14:32:00,
2013-02-16 09:37:00,37.6,31.4,29.59,North,0,0.0,0.0,78,0.02,,,0.02,WUHU216HW,2013-02-16 14:37:00,
2013-02-16 09:42:00,37.6,31.1,29.59,North,0,0.0,0.0,77,0.02,,,0.02,WUHU216HW,2013-02-16 14:42:00,
2013-02-16 09:47:00,37.8,30.9,29.59,North,0,0.0,0.0,76,0.02,,,0.02,WUHU216HW,2013-02-16 14:47:00,
2013-02-16 09:52:00,38.3,31.4,29.59,North,0,0.0,0.0,76,0.02,,,0.02,WUHU216HW,2013-02-16 14:52:00,
2013-02-16 09:58:00,38.7,30.8,29.59,North,0,0.0,0.0,73,0.02,,,0.02,WUHU216HW,2013-02-16 14:58:00,
2013-02-16 10:03:00,39.1,31.2,29.59,North,0,0.0,0.0,73,0.01,,,0.02,WUHU216HW,2013-02-16 15:03:00,
2013-02-16 10:08:00,39.2,31.0,29.59,North,0,0.0,0.0,72,0.01,,,0.02,WUHU216HW,2013-02-16 15:08:00,
2013-02-16 10:13:00,39.2,30.6,29.59,North,0,0.0,0.0,71,0.01,,,0.02,WUHU216HW,2013-02-16 15:13:00,
2013-02-16 10:18:00,39.2,30.6,29.59,North,0,0.0,0.0,71,0.01,,,0.02,WUHU216HW,2013-02-16 15:18:00,
2013-02-16 10:23:00,40.3,30.6,29.59,North,0,0.0,0.0,68,0.01,,,0.02,WUHU216HW,2013-02-16 15:23:00,
2013-02-16 10:28:00,41.2,31.1,29.59,North,0,0.0,0.0,67,0.01,,,0.02,WUHU216HW,2013-02-16 15:28:00,
2013-02-16 10:33:00,41.9,30.3,29.59,North,0,0.0,0.0,63,0.01,,,0.02,WUHU216HW,2013-02-16 15:33:00,
2013-02-16 10:38:00,42.1,29.6,29.59,North,0,0.0,0.0,61,0.00,,,0.02,WUHU216HW,2013-02-16 15:38:00,
2013-02-16 10:43:00,42.8,30.2,29.59,North,0,0.0,0.0,61,0.00,,,0.02,WUHU216HW,2013-02-16 15:43:00,
2013-02-16 10:48:00,43.6,30.6,29.58,North,0,0.0,0.0,60,0.00,,,0.02,WUHU216HW,2013-02-16 15:48:00,
2013-02-16 10:53:00,44.1,29.8,29.58,North,0,0.0,0.0,57,0.00,,,0.02,WUHU216HW,2013-02-16 15:53:00,
2013-02-16 10:58:00,44.1,28.9,29.59,North,0,0.0,0.0,55,0.00,,,0.02,WUHU216HW,2013-02-16 15:58:00,
2013-02-16 11:03:00,43.7,29.4,29.59,North,0,0.0,0.0,57,0.00,,,0.02,WUHU216HW,2013-02-16 16:03:00,
2013-02-16 11:09:00,44.3,30.4,29.58,North,0,0.0,0.0,58,0.00,,,0.02,WUHU216HW,2013-02-16 16:09:00,
2013-02-16 11:14:00,44.1,28.0,29.58,North,0,0.0,0.0,53,0.00,,,0.02,WUHU216HW,2013-02-16 16:14:00,
2013-02-16 11:19:00,43.4,27.8,29.58,North,0,0.0,0.0,54,0.00,,,0.02,WUHU216HW,2013-02-16 16:19:00,
2013-02-16 11:24:00,43.6,28.8,29.58,North,0,0.0,0.0,56,0.00,,,0.02,WUHU216HW,2013-02-16 16:24:00,
2013-02-16 11:29:00,43.9,28.3,29.58,North,0,0.0,0.0,54,0.00,,,0.02,WUHU216HW,2013-02-16 16:29:00,
2013-02-16 11:34:00,44.3,27.7,29.58,North,0,0.0,0.0,52,0.00,,,0.02,WUHU216HW,2013-02-16 16:34:00,
2013-02-16 11:39:00,44.6,28.5,29.57,North,0,0.0,0.0,53,0.00,,,0.02,WUHU216HW,2013-02-16 16:39:00,
2013-02-16 11:44:00,45.0,28.9,29.57,North,0,0.0,0.0,53,0.00,,,0.02,WUHU216HW,2013-02-16 16:44:00,
2013-02-16 11:49:00,45.4,28.7,29.57,North,0,0.0,0.0,52,0.00,,,0.02,WUHU216HW,2013-02-16 16:49:00,
2013-02-16 11:55:00,45.9,28.4,29.56,North,0,0.0,0.0,50,0.00,,,0.02,WUHU216HW,2013-02-16 16:55:00,
2013-02-16 12:00:00,46.3,29.1,29.56,North,0,0.0,0.0,51,0.00,,,0.02,WUHU216HW,2013-02-16 17:00:00,
2013-02-16 12:05:00,46.1,28.4,29.56,North,0,0.0,0.0,50,0.00,,,0.02,WUHU216HW,2013-02-16 17:05:00,
2013-02-16 12:10:00,45.7,27.1,29.56,North,0,0.0,0.0,48,0.00,,,0.02,WUHU216HW,2013-02-16 17:10:00,
2013-02-16 12:15:00,45.0,27.0,29.55,North,0,0.0,0.0,49,0.00,,,0.02,WUHU216HW,2013-02-16 17:15:00,
2013-02-16 12:20:00,44.6,27.6,29.55,North,0,0.0,0.0,51,0.00,,,0.02,WUHU216HW,2013-02-16 17:20:00,
2013-02-16 12:25:00,44.8,27.8,29.54,North,0,0.0,0.0,51,0.00,,,0.02,WUHU216HW,2013-02-16 17:25:00,
2013-02-16 12:30:00,45.0,28.0,29.55,North,0,0.0,0.0,51,0.00,,,0.02,WUHU216HW,2013-02-16 17:30:00,
2013-02-16 12:35:00,45.2,27.1,29.55,North,0,0.0,0.0,49,0.00,,,0.02,WUHU216HW,2013-02-16 17:35:00,
2013-02-16 12:41:00,45.0,27.6,29.55,North,0,0.0,0.0,50,0.00,,,0.02,WUHU216HW,2013-02-16 17:41:00,
2013-02-16 12:46:00,44.6,27.2,29.54,North,0,0.0,0.0,50,0.00,,,0.02,WUHU216HW,2013-02-16 17:46:00,
2013-02-16 12:51:00,44.3,27.3,29.54,North,0,0.0,0.0,51,0.00,,,0.02,WUHU216HW,2013-02-16 17:51:00,
2013-02-16 12:56:00,44.3,27.7,29.55,North,0,0.0,0.0,52,0.00,,,0.02,WUHU216HW,2013-02-16 17:56:00,
2013-02-16 13:01:00,44.1,26.2,29.55,North,0,0.0,0.0,49,0.00,,,0.02,WUHU216HW,2013-02-16 18:01:00,
2013-02-16 13:06:00,43.7,27.3,29.55,North,0,0.0,0.0,52,0.00,,,0.02,WUHU216HW,2013-02-16 18:06:00,
2013-02-16 13:11:00,43.7,26.4,29.54,North,0,0.0,0.0,50,0.00,,,0.02,WUHU216HW,2013-02-16 18:11:00,
2013-02-16 13:16:00,43.9,27.0,29.54,North,0,0.0,0.0,51,0.00,,,0.02,WUHU216HW,2013-02-16 18:16:00,
2013-02-16 13:21:00,43.7,26.8,29.54,North,0,0.0,0.0,51,0.00,,,0.02,WUHU216HW,2013-02-16 18:21:00,
2013-02-16 13:27:00,43.4,26.0,29.54,North,0,0.0,0.0,50,0.00,,,0.02,WUHU216HW,2013-02-16 18:27:00,
2013-02-16 13:32:00,42.8,26.0,29.54,North,0,0.0,0.0,51,0.00,,,0.02,WUHU216HW,2013-02-16 18:32:00,
2013-02-16 13:37:00,42.5,25.7,29.54,North,0,0.0,0.0,51,0.00,,,0.02,WUHU216HW,2013-02-16 18:37:00,
2013-02-16 13:42:00,42.3,25.5,29.54,North,0,0.0,0.0,51,0.00,,,0.02,WUHU216HW,2013-02-16 18:42:00,
2013-02-16 13:47:00,42.1,25.3,29.53,North,0,0.0,0.0,51,0.00,,,0.02,WUHU216HW,2013-02-16 18:47:00,
2013-02-16 13:52:00,41.6,23.8,29.54,North,0,0.0,0.0,49,0.00,,,0.02,WUHU216HW,2013-02-16 18:52:00,
2013-02-16 13:57:00,41.2,24.4,29.54,North,0,0.0,0.0,51,0.00,,,0.02,WUHU216HW,2013-02-16 18:57:00,
2013-02-16 14:02:00,41.4,24.6,29.54,North,0,0.0,0.0,51,0.00,,,0.02,WUHU216HW,2013-02-16 19:02:00,
2013-02-16 14:07:00,41.4,24.6,29.54,North,0,0.0,0.0,51,0.00,,,0.02,WUHU216HW,2013-02-16 19:07:00,
2013-02-16 14:12:00,40.9,23.6,29.54,North,0,0.0,0.0,50,0.00,,,0.02,WUHU216HW,2013-02-16 19:12:00,
2013-02-16 14:18:00,40.1,23.4,29.53,North,0,0.0,0.0,51,0.00,,,0.02,WUHU216HW,2013-02-16 19:18:00,
2013-02-16 14:23:00,39.8,23.0,29.53,North,0,0.0,0.0,51,0.00,,,0.02,WUHU216HW,2013-02-16 19:23:00,
2013-02-16 14:28:00,39.8,23.5,29.53,North,0,0.0,0.0,52,0.00,,,0.02,WUHU216HW,2013-02-16 19:28:00,
2013-02-16 14:33:00,39.8,23.5,29.54,North,0,0.0,0.0,52,0.00,,,0.02,WUHU216HW,2013-02-16 19:33:00,
2013-02-16 14:38:00,40.0,24.1,29.53,North,0,0.0,0.0,53,0.00,,,0.02,WUHU216HW,2013-02-16 19:38:00,
2013-02-16 14:43:00,39.8,23.5,29.53,North,0,0.0,0.0,52,0.00,,,0.02,WUHU216HW,2013-02-16 19:43:00,
2013-02-16 14:48:00,40.0,24.1,29.54,North,0,0.0,0.0,53,0.00,,,0.02,WUHU216HW,2013-02-16 19:48:00,
2013-02-16 14:53:00,40.0,23.7,29.54,North,0,0.0,0.0,52,0.00,,,0.02,WUHU216HW,2013-02-16 19:53:00,
2013-02-16 14:58:00,40.1,23.9,29.53,North,0,0.0,0.0,52,0.00,,,0.02,WUHU216HW,2013-02-16 19:58:00,
2013-02-16 15:03:00,40.1,23.9,29.54,North,0,0.0,0.0,52,0.00,,,0.02,WUHU216HW,2013-02-16 20:03:00,
2013-02-16 15:08:00,40.0,23.7,29.54,North,0,0.0,0.0,52,0.00,,,0.02,WUHU216HW,2013-02-16 20:08:00,
2013-02-16 15:13:00,39.6,23.3,29.54,North,0,0.0,0.0,52,0.00,,,0.02,WUHU216HW,2013-02-16 20:13:00,
2013-02-16 15:19:00,39.6,23.3,29.54,North,0,0.0,0.0,52,0.00,,,0.02,WUHU216HW,2013-02-16 20:19:00,
2013-02-16 15:24:00,39.2,22.6,29.54,North,0,0.0,0.0,51,0.00,,,0.02,WUHU216HW,2013-02-16 20:24:00,
2013-02-16 15:29:00,39.1,22.9,29.54,North,0,0.0,0.0,52,0.00,,,0.02,WUHU216HW,2013-02-16 20:29:00,
2013-02-16 15:34:00,38.9,22.7,29.54,North,0,0.0,0.0,52,0.00,,,0.02,WUHU216HW,2013-02-16 20:34:00,
2013-02-16 15:39:00,38.5,22.3,29.54,North,0,0.0,0.0,52,0.00,,,0.02,WUHU216HW,2013-02-16 20:39:00,
2013-02-16 15:44:00,38.3,22.6,29.54,North,0,0.0,0.0,53,0.00,,,0.02,WUHU216HW,2013-02-16 20:44:00,
2013-02-16 15:49:00,38.2,22.9,29.54,North,0,0.0,0.0,54,0.00,,,0.02,WUHU216HW,2013-02-16 20:49:00,
2013-02-16 15:54:00,38.2,22.5,29.54,North,0,0.0,0.0,53,0.00,,,0.02,WUHU216HW,2013-02-16 20:54:00,
2013-02-16 15:59:00,37.6,22.0,29.54,North,0,0.0,0.0,53,0.00,,,0.02,WUHU216HW,2013-02-16 20:59:00,
2013-02-16 16:05:00,37.4,22.2,29.54,North,0,0.0,0.0,54,0.00,,,0.02,WUHU216HW,2013-02-16 21:05:00,
2013-02-16 16:10:00,37.1,22.0,29.54,North,0,0.0,0.0,54,0.00,,,0.02,WUHU216HW,2013-02-16 21:10:00,
2013-02-16 16:15:00,37.1,22.3,29.53,North,0,0.0,0.0,55,0.00,,,0.02,WUHU216HW,2013-02-16 21:15:00,
2013-02-16 16:20:00,36.9,22.2,29.52,North,0,0.0,0.0,55,0.00,,,0.02,WUHU216HW,2013-02-16 21:20:00,
2013-02-16 16:25:00,36.7,22.1,29.52,North,0,0.0,0.0,55,0.00,,,0.02,WUHU216HW,2013-02-16 21:25:00,
2013-02-16 16:30:00,36.4,21.7,29.52,North,0,0.0,0.0,55,0.00,,,0.02,WUHU216HW,2013-02-16 21:30:00,
2013-02-16 16:35:00,36.2,21.5,29.52,North,0,0.0,0.0,55,0.00,,,0.02,WUHU216HW,2013-02-16 21:35:00,
2013-02-16 16:40:00,36.0,21.8,29.52,North,0,0.0,0.0,56,0.00,,,0.02,WUHU216HW,2013-02-16 21:40:00,
2013-02-16 16:45:00,35.8,21.7,29.52,North,0,0.0,0.0,56,0.00,,,0.02,WUHU216HW,2013-02-16 21:45:00,
2013-02-16 16:50:00,35.5,21.3,29.51,North,0,0.0,0.0,56,0.00,,,0.02,WUHU216HW,2013-02-16 21:50:00,
2013-02-16 16:55:00,35.5,21.3,29.51,North,0,0.0,0.0,56,0.00,,,0.02,WUHU216HW,2013-02-16 21:55:00,
2013-02-16 17:00:00,35.1,20.5,29.51,North,0,0.0,0.0,55,0.00,,,0.02,WUHU216HW,2013-02-16 22:00:00,
2013-02-16 17:05:00,34.9,20.8,29.51,North,0,0.0,0.0,56,0.00,,,0.02,WUHU216HW,2013-02-16 22:05:00,
2013-02-16 17:11:00,34.9,20.8,29.51,North,0,0.0,0.0,56,0.00,,,0.02,WUHU216HW,2013-02-16 22:11:00,
2013-02-16 17:16:00,34.6,20.4,29.51,North,0,0.0,0.0,56,0.00,,,0.02,WUHU216HW,2013-02-16 22:16:00,
2013-02-16 17:21:00,34.4,20.3,29.51,North,0,0.0,0.0,56,0.00,,,0.02,WUHU216HW,2013-02-16 22:21:00,
2013-02-16 17:26:00,34.2,20.1,29.52,North,0,0.0,0.0,56,0.00,,,0.02,WUHU216HW,2013-02-16 22:26:00,
2013-02-16 17:31:00,34.2,20.1,29.51,North,0,0.0,0.0,56,0.00,,,0.02,WUHU216HW,2013-02-16 22:31:00,
2013-02-16 17:36:00,34.0,19.9,29.52,North,0,0.0,0.0,56,0.00,,,0.02,WUHU216HW,2013-02-16 22:36:00,
2013-02-16 17:41:00,33.8,19.7,29.52,North,0,0.0,0.0,56,0.00,,,0.02,WUHU216HW,2013-02-16 22:41:00,
2013-02-16 17:46:00,33.7,19.5,29.53,North,0,0.0,0.0,56,0.00,,,0.02,WUHU216HW,2013-02-16 22:46:00,
2013-02-16 17:51:00,33.5,19.4,29.52,North,0,0.0,0.0,56,0.00,,,0.02,WUHU216HW,2013-02-16 22:51:00,
2013-02-16 17:56:00,33.3,19.2,29.52,North,0,0.0,0.0,56,0.00,,,0.02,WUHU216HW,2013-02-16 22:56:00,
2013-02-16 18:02:00,33.3,19.6,29.53,North,0,0.0,0.0,57,0.00,,,0.02,WUHU216HW,2013-02-16 23:02:00,
2013-02-16 18:07:00,33.1,19.4,29.53,North,0,0.0,0.0,57,0.00,,,0.02,WUHU216HW,2013-02-16 23:07:00,
2013-02-16 18:12:00,32.9,19.4,29.53,North,0,0.0,0.0,57,0.00,,,0.02,WUHU216HW,2013-02-16 23:12:00,
2013-02-16 18:17:00,32.9,19.4,29.53,North,0,0.0,0.0,57,0.00,,,0.02,WUHU216HW,2013-02-16 23:17:00,
2013-02-16 18:22:00,32.8,18.7,29.53,North,0,0.0,0.0,56,0.00,,,0.02,WUHU216HW,2013-02-16 23:22:00,
2013-02-16 18:27:00,32.8,18.7,29.53,North,0,0.0,0.0,56,0.00,,,0.02,WUHU216HW,2013-02-16 23:27:00,
2013-02-16 18:32:00,32.6,18.5,29.53,North,0,0.0,0.0,56,0.00,,,0.02,WUHU216HW,2013-02-16 23:32:00,
2013-02-16 18:37:00,32.6,18.5,29.52,North,0,0.0,0.0,56,0.00,,,0.02,WUHU216HW,2013-02-16 23:37:00,
2013-02-16 18:42:00,32.4,18.8,29.52,North,0,0.0,0.0,57,0.00,,,0.02,WUHU216HW,2013-02-16 23:42:00,
2013-02-16 18:47:00,32.4,18.8,29.53,North,0,0.0,0.0,57,0.00,,,0.02,WUHU216HW,2013-02-16 23:47:00,
2013-02-16 18:52:00,32.2,19.1,29.52,North,0,0.0,0.0,58,0.00,,,0.02,WUHU216HW,2013-02-16 23:52:00,
2013-02-16 18:58:00,32.0,18.9,29.52,North,0,0.0,0.0,58,0.00,,,0.02,WUHU216HW,2013-02-16 23:58:00,
2013-02-16 19:03:00,31.9,18.4,29.52,North,0,0.0,0.0,57,0.00,,,0.02,WUHU216HW,2013-02-17 00:03:00,
2013-02-16 19:08:00,31.9,18.4,29.52,North,0,0.0,0.0,57,0.00,,,0.02,WUHU216HW,2013-02-17 00:08:00,
2013-02-16 19:13:00,31.7,18.2,29.52,North,0,0.0,0.0,57,0.00,,,0.02,WUHU216HW,2013-02-17 00:13:00,
2013-02-16 19:18:00,31.7,18.2,29.52,North,0,0.0,0.0,57,0.00,,,0.02,WUHU216HW,2013-02-17 00:18:00,
2013-02-16 19:23:00,31.5,18.0,29.51,North,0,0.0,0.0,57,0.00,,,0.02,WUHU216HW,2013-02-17 00:23:00,
2013-02-16 19:28:00,31.3,17.4,29.51,North,0,0.0,0.0,56,0.00,,,0.02,WUHU216HW,2013-02-17 00:28:00,
2013-02-16 19:33:00,31.3,17.8,29.51,North,0,0.0,0.0,57,0.00,,,0.02,WUHU216HW,2013-02-17 00:33:00,
2013-02-16 19:38:00,31.3,17.8,29.51,North,0,0.0,0.0,57,0.00,,,0.02,WUHU216HW,2013-02-17 00:38:00,
2013-02-16 19:43:00,31.3,17.8,29.51,North,0,0.0,0.0,57,0.00,,,0.02,WUHU216HW,2013-02-17 00:43:00,
2013-02-16 19:48:00,31.1,17.7,29.51,North,0,0.0,0.0,57,0.00,,,0.02,WUHU216HW,2013-02-17 00:48:00,
2013-02-16 19:53:00,31.1,17.2,29.51,North,0,0.0,0.0,56,0.00,,,0.02,WUHU216HW,2013-02-17 00:53:00,
2013-02-16 19:58:00,31.0,17.0,29.51,North,0,0.0,0.0,56,0.00,,,0.02,WUHU216HW,2013-02-17 00:58:00,
2013-02-16 20:03:00,30.8,16.5,29.51,North,0,0.0,0.0,55,0.00,,,0.02,WUHU216HW,2013-02-17 01:03:00,
2013-02-16 20:09:00,30.8,16.8,29.51,North,0,0.0,0.0,56,0.00,,,0.02,WUHU216HW,2013-02-17 01:09:00,
2013-02-16 20:14:00,30.8,17.3,29.51,North,0,0.0,0.0,57,0.00,,,0.02,WUHU216HW,2013-02-17 01:14:00,
2013-02-16 20:19:00,30.6,17.1,29.51,North,0,0.0,0.0,57,0.00,,,0.02,WUHU216HW,2013-02-17 01:19:00,
2013-02-16 20:24:00,30.6,16.7,29.51,North,0,0.0,0.0,56,0.00,,,0.02,WUHU216HW,2013-02-17 01:24:00,
2013-02-16 20:29:00,30.4,16.9,29.51,North,0,0.0,0.0,57,0.00,,,0.02,WUHU216HW,2013-02-17 01:29:00,
2013-02-16 20:34:00,30.4,16.9,29.51,North,0,0.0,0.0,57,0.00,,,0.02,WUHU216HW,2013-02-17 01:34:00,
2013-02-16 20:39:00,30.4,16.6,29.51,North,0,0.0,0.0,56,0.00,,,0.02,WUHU216HW,2013-02-17 01:39:00,
2013-02-16 20:44:00,30.2,16.4,29.51,North,0,0.0,0.0,56,0.00,,,0.02,WUHU216HW,2013-02-17 01:44:00,
2013-02-16 20:49:00,30.2,16.4,29.51,North,0,0.0,0.0,56,0.00,,,0.02,WUHU216HW,2013-02-17 01:49:00,
2013-02-16 20:54:00,30.1,16.2,29.51,North,0,0.0,0.0,56,0.00,,,0.02,WUHU216HW,2013-02-17 01:54:00,
2013-02-16 20:59:00,30.1,16.6,29.51,North,0,0.0,0.0,57,0.00,,,0.02,WUHU216HW,2013-02-17 01:59:00,
2013-02-16 21:04:00,29.9,16.0,29.51,North,0,0.0,0.0,56,0.00,,,0.02,WUHU216HW,2013-02-17 02:04:00,
2013-02-16 21:09:00,29.9,15.6,29.50,North,0,0.0,0.0,55,0.00,,,0.02,WUHU216HW,2013-02-17 02:09:00,
2013-02-16 21:15:00,29.9,16.0,29.49,North,0,0.0,0.0,56,0.00,,,0.02,WUHU216HW,2013-02-17 02:15:00,
2013-02-16 21:20:00,29.7,15.5,29.49,North,0,0.0,0.0,55,0.00,,,0.02,WUHU216HW,2013-02-17 02:20:00,
2013-02-16 21:25:00,29.5,15.3,29.49,North,0,0.0,0.0,55,0.00,,,0.02,WUHU216HW,2013-02-17 02:25:00,
2013-02-16 21:30:00,29.3,15.6,29.50,North,0,0.0,0.0,56,0.00,,,0.02,WUHU216HW,2013-02-17 02:30:00,
2013-02-16 21:35:00,29.3,15.6,29.50,North,0,0.0,0.0,56,0.00,,,0.02,WUHU216HW,2013-02-17 02:35:00,
2013-02-16 21:40:00,29.2,15.4,29.50,North,0,0.0,0.0,56,0.00,,,0.02,WUHU216HW,2013-02-17 02:40:00,
2013-02-16 21:45:00,29.2,15.4,29.50,North,0,0.0,0.0,56,0.00,,,0.02,WUHU216HW,2013-02-17 02:45:00,
2013-02-16 21:50:00,29.2,14.9,29.49,North,0,0.0,0.0,55,0.00,,,0.02,WUHU216HW,2013-02-17 02:50:00,
2013-02-16 21:55:00,29.0,15.2,29.49,North,0,0.0,0.0,56,0.00,,,0.02,WUHU216HW,2013-02-17 02:55:00,
2013-02-16 22:00:00,28.8,15.5,29.48,North,0,0.0,0.0,57,0.00,,,0.02,WUHU216HW,2013-02-17 03:00:00,
2013-02-16 22:05:00,28.6,14.9,29.49,North,0,0.0,0.0,56,0.00,,,0.02,WUHU216HW,2013-02-17 03:05:00,
2013-02-16 22:10:00,28.6,14.9,29.48,North,0,0.0,0.0,56,0.00,,,0.02,WUHU216HW,2013-02-17 03:10:00,
2013-02-16 22:15:00,28.4,13.9,29.48,North,0,0.0,0.0,54,0.00,,,0.02,WUHU216HW,2013-02-17 03:15:00,
2013-02-16 22:21:00,28.4,13.1,29.49,North,0,0.0,0.0,52,0.00,,,0.02,WUHU216HW,2013-02-17 03:21:00,
2013-02-16 22:26:00,28.4,13.5,29.49,North,0,0.0,0.0,53,0.00,,,0.02,WUHU216HW,2013-02-17 03:26:00,
2013-02-16 22:31:00,28.3,13.7,29.49,North,0,0.0,0.0,54,0.00,,,0.02,WUHU216HW,2013-02-17 03:31:00,
2013-02-16 22:36:00,28.3,13.7,29.48,North,0,0.0,0.0,54,0.00,,,0.02,WUHU216HW,2013-02-17 03:36:00,
2013-02-16 22:41:00,28.3,13.7,29.47,North,0,0.0,0.0,54,0.00,,,0.02,WUHU216HW,2013-02-17 03:41:00,
2013-02-16 22:46:00,28.3,13.7,29.47,North,0,0.0,0.0,54,0.00,,,0.02,WUHU216HW,2013-02-17 03:46:00,
2013-02-16 22:51:00,28.1,13.5,29.47,North,0,0.0,0.0,54,0.00,,,0.02,WUHU216HW,2013-02-17 03:51:00,
2013-02-16 22:56:00,28.1,13.5,29.47,North,0,0.0,0.0,54,0.00,,,0.02,WUHU216HW,2013-02-17 03:56:00,
2013-02-16 23:01:00,28.1,13.2,29.47,North,0,0.0,0.0,53,0.00,,,0.02,WUHU216HW,2013-02-17 04:01:00,
2013-02-16 23:06:00,27.9,13.3,29.46,North,0,0.0,0.0,54,0.00,,,0.02,WUHU216HW,2013-02-17 04:06:00,
2013-02-16 23:11:00,27.9,12.5,29.45,North,0,0.0,0.0,52,0.00,,,0.02,WUHU216HW,2013-02-17 04:11:00,
2013-02-16 23:16:00,27.7,12.3,29.45,North,0,0.0,0.0,52,0.00,,,0.02,WUHU216HW,2013-02-17 04:16:00,
2013-02-16 23:22:00,27.7,12.0,29.44,North,0,0.0,0.0,51,0.00,,,0.02,WUHU216HW,2013-02-17 04:22:00,
2013-02-16 23:27:00,27.5,11.3,29.44,North,0,0.0,0.0,50,0.00,,,0.02,WUHU216HW,2013-02-17 04:27:00,
2013-02-16 23:32:00,27.5,11.8,29.44,North,0,0.0,0.0,51,0.00,,,0.02,WUHU216HW,2013-02-17 04:32:00,
2013-02-16 23:37:00,27.4,11.2,29.44,North,0,0.0,0.0,50,0.00,,,0.02,WUHU216HW,2013-02-17 04:37:00,
2013-02-16 23:42:00,27.4,11.2,29.43,North,0,0.0,0.0,50,0.00,,,0.02,WUHU216HW,2013-02-17 04:42:00,
2013-02-16 23:47:00,27.2,11.0,29.43,North,0,0.0,0.0,50,0.00,,,0.02,WUHU216HW,2013-02-17 04:47:00,
2013-02-16 23:52:00,27.0,11.3,29.43,North,0,0.0,0.0,51,0.00,,,0.02,WUHU216HW,2013-02-17 04:52:00,
2013-02-16 23:57:00,27.0,10.8,29.43,North,0,0.0,0.0,50,0.00,,,0.02,WUHU216HW,2013-02-17 04:57:00,